Regional Weather Roundup
Issued by NWS Northern Indiana

Home | Current Version | Previous Version | Graphics & Text | Print | Product List | Glossary On
Versions: 1 2 3 4 5 6 7 8 9 10 11 12 13 14 15 16 17 18 19 20 21 22 23 24 25 26 27 28 29 30 31 32 33 34 35 36 37 38 39 40 41 42 43 44 45 46 47 48 49 50
000
ASUS43 KIWX 290900
RWRIWX

KIWX WEATHER ROUNDUP
NATIONAL WEATHER SERVICE NORTHERN INDIANA
500 AM EDT WED JUL 29 2015

NOTE: "FAIR" INDICATES FEW OR NO CLOUDS BELOW 12,000 FEET WITH NO
SIGNIFICANT WEATHER AND/OR OBSTRUCTIONS TO VISIBILITY.

* THESE STATIONS ARE NOT UNDER NWS QUALITY CONTROL. THEY ALSO MAY NOT
  REPORT WEATHER SUCH AS PRECIPITATION OR FOG.

INZ001>027-291000-
NORTHERN INDIANA

CITY           SKY/WX    TMP DP  RH WIND       PRES   REMARKS
SOUTH BEND     CLOUDY    77  71  82 S3        29.95R
GOSHEN         PTCLDY    73  68  84 S3        29.95R
ANGOLA*        CLEAR     72  63  73 CALM      29.96S
FORT WAYNE     MOCLDY    72  69  90 CALM      29.96S

$$
INZ028>050-291000-
CENTRAL INDIANA

CITY           SKY/WX    TMP DP  RH WIND       PRES   REMARKS
LAFAYETTE      MOCLDY    74  73  97 SW3       29.95R FOG
KOKOMO*        PTCLDY    73  70  88 CALM      29.96R
MUNCIE*        CLEAR     73  71  93 CALM      29.97R
INDIANAPOLIS   PTCLDY    78  70  76 CALM      29.96R

$$
MIZ043>046-050>051-056>058-064>065-071>073-077>080-291000-
SOUTHWEST LOWER MICHIGAN

CITY           SKY/WX    TMP DP  RH WIND       PRES   REMARKS
BATTLE CREEK   CLEAR     74  62  66 S8        29.95R
BENTON HARBOR  CLOUDY    75  69  81 S3        29.92R
COLDWATER*     CLEAR     70  62  76 SE7       29.96R
HILLSDALE*     PTCLDY    72  65  78 S3        29.97S
HOLLAND        MOCLDY    74  66  76 S5        29.93R
GRAND RAPIDS   MOCLDY    74  65  73 S5        29.93R
KALAMAZOO      PTCLDY    73  64  73 S6        29.95R
STURGIS*       CLEAR     72  66  83 CALM      29.95R
THREE RIVERS*  FAIR      70  65  83 CALM      29.95R

$$
OHZ001>008-015>018-024>025-291000-
NORTHWEST OHIO

CITY           SKY/WX    TMP DP  RH WIND       PRES   REMARKS
DEFIANCE       CLEAR     71  65  81 CALM      29.95
FINDLAY        PTCLDY    69  65  86 S5        29.96
TOLEDO EXPRESS CLEAR     66  65  96 CALM      29.95
TOLEDO METCALF CLEAR     71  66  84 CALM      29.96
LIMA           CLEAR     70  67  90 SE6       29.97S

$$
AND FOR LAKE MICHIGAN COASTAL AND OPEN LAKE BUOY OBSERVATIONS

STATION/POSITION TEMP    WIND        PRES    VSBY  WAVE
                 AIR SEA DIR/SP/G                  HT/PER
                 (F)     (DEG/KT/KT) (MB)    (MI)  (FT/S)
CALUMET HARBOR    75     240/  2/  8   N/A
MICHIGAN CITY     79     140/  7/  9   N/A
BURNS HARBOR      79     200/  9/ 10 1013.5S
SAINT JOSEPH      77     120/  2/  5 1013.9R
4 MI NW BRIDGMAN  76 75  210/  8/ 10   N/A           1
MICHIGAN CITY     76 75  190/  6/  8   N/A           0

$$
&&



USA.gov is the U.S. government's official web portal to all federal, state and local government web resources and services.